Terminal Aerodrome Forecast
Issued by NWS Honolulu, HI

Home | Current Version | Previous Version | Text Only | Print | Product List | Glossary On
Versions: 1 2 3 4 5 6 7 8 9 10 11 12 13 14 15 16 17 18 19 20 21 22 23 24 25 26 27 28 29 30 31 32 33 34 35 36 37 38 39 40 41 42
000
FTPA31 PHFO 220900 AAA
TAFHNL
TAF AMD
PHNL 220905Z 2209/2312 35008KT P6SM FEW030 SCT060
     FM222000 02014G20KT P6SM VCSH SCT020 BKN035 OVC060
     FM230100 02013KT P6SM VCSH SCT020 BKN035 OVC070=

USA.gov is the U.S. government's official web portal to all federal, state and local government web resources and services.